London-Corbin, KY

7:19 AM EDT on July 17, 2019 (GMT -0400)
London-Corbin / McKee

Weather History for KLOZ - May, 2019

Change the Weather History Date:

Friday, May 10, 2019

  Actual Average Record
Temperature  
Mean Temperature 71 °F 63 °F  
Max Temperature 79 °F 75 °F 86 °F (1963)
Min Temperature 63 °F 52 °F 30 °F (1966)
Degree Days  
Heating Degree Days 0 4  
Month to date heating degree days 9 44  
Since 1 July heating degree days 3989 4145  
Cooling Degree Days 6 2  
Month to date cooling degree days 31 15  
Year to date cooling degree days 43 41  
Growing Degree Days 21 (Base 50)    
Moisture  
Dew Point 63 °F    
Average Humidity 76    
Maximum Humidity 93    
Minimum Humidity 58    
Precipitation  
Precipitation 0.00 in 0.17 in 0.74 in (1995)
Month to date precipitation 2.62 1.62  
Sea Level Pressure  
Sea Level Pressure 30.04 in    
Wind  
Wind Speed 6 mph (WSW)    
Max Wind Speed 12 mph    
Max Gust Speed 17 mph    
Visibility 10 miles    
Events      
T = Trace of Precipitation, MM = Missing Value Source: NWS Daily Summary

Daily Weather History Graph

Daily Weather History Graph

Search for Another Location

Airport or City:

Astronomy

May. 10, 2019 Rise Set
Actual Time 6:32 AM EDT 8:33 PM EDT
Civil Twilight 6:04 AM EDT 9:01 PM EDT
Nautical Twilight 5:29 AM EDT 9:36 PM EDT
Astronomical Twilight 4:51 AM EDT 10:14 PM EDT
Moon 11:32 AM EDT (5/10) 1:24 AM EDT (5/10)
Length of Visible Light 14h 57m
Length of Day
14h 00m
Waxing Crescent, 35% of the Moon is Illuminated
May 10
Waxing Crescent
May 11
First Quarter
May 18
Full
May 26
Last Quarter
Jun 3
New

Hourly Weather History & Observations

Time (EDT) Temp. Dew Point Humidity Pressure Visibility Wind Dir Wind Speed Gust Speed Precip Events Conditions
12:53 AM 66.9 °F 62.1 °F 84% 29.98 in 10.0 mi SSW 5.8 mph - N/A   Overcast
1:53 AM 66.0 °F 62.1 °F 87% 29.98 in 10.0 mi SW 5.8 mph - N/A   Clear
2:36 AM 66.0 °F 62.1 °F 87% 30.02 in 10.0 mi WSW 6.9 mph - N/A   Overcast
2:53 AM 66.0 °F 62.1 °F 87% 29.99 in 10.0 mi SW 9.2 mph - N/A   Overcast
3:07 AM 66.0 °F 62.1 °F 87% 30.01 in 10.0 mi SSW 8.1 mph - N/A   Overcast
3:53 AM 64.9 °F 62.1 °F 90% 29.99 in 10.0 mi SW 5.8 mph - N/A   Partly Cloudy
4:53 AM 64.9 °F 62.1 °F 90% 29.98 in 10.0 mi SSW 3.5 mph - N/A   Overcast
5:53 AM 64.9 °F 62.1 °F 90% 29.99 in 10.0 mi WSW 3.5 mph - N/A   Overcast
6:25 AM 64.9 °F 62.1 °F 90% 30.03 in 10.0 mi Variable 3.5 mph - N/A   Overcast
6:53 AM 64.9 °F 63.0 °F 93% 30.01 in 10.0 mi Calm Calm - N/A   Overcast
7:10 AM 64.9 °F 63.0 °F 93% 30.05 in 10.0 mi Calm Calm - N/A   Overcast
7:22 AM 64.9 °F 63.0 °F 93% 30.05 in 10.0 mi Calm Calm - N/A   Overcast
7:53 AM 64.9 °F 63.0 °F 93% 30.03 in 10.0 mi SSW 4.6 mph - N/A   Overcast
8:53 AM 66.9 °F 63.0 °F 87% 30.04 in 10.0 mi SW 3.5 mph - N/A   Overcast
9:00 AM 66.9 °F 63.0 °F 87% 30.07 in 10.0 mi SW 5.8 mph - N/A   Overcast
9:08 AM 66.9 °F 63.0 °F 87% 30.07 in 10.0 mi WSW 4.6 mph - N/A   Overcast
9:53 AM 66.9 °F 63.0 °F 87% 30.05 in 10.0 mi SSW 6.9 mph - N/A   Overcast
10:32 AM 69.1 °F 64.0 °F 84% 30.09 in 10.0 mi SW 9.2 mph - N/A   Overcast
10:50 AM 69.8 °F 62.6 °F 78% 30.09 in 10.0 mi WSW 6.9 mph - N/A   Overcast
10:53 AM 69.1 °F 63.0 °F 81% 30.06 in 10.0 mi WSW 5.8 mph - N/A   Overcast
11:39 AM 71.1 °F 63.0 °F 75% 30.08 in 10.0 mi SW 4.6 mph - N/A   Mostly Cloudy
11:53 AM 71.1 °F 64.0 °F 78% 30.05 in 10.0 mi SSW 6.9 mph - N/A   Mostly Cloudy
12:53 PM 73.9 °F 63.0 °F 68% 30.04 in 10.0 mi SW 8.1 mph - N/A   Partly Cloudy
1:53 PM 75.0 °F 63.0 °F 66% 30.04 in 10.0 mi WSW 5.8 mph - N/A   Mostly Cloudy
2:53 PM 75.9 °F 62.1 °F 62% 30.04 in 10.0 mi Variable 5.8 mph - N/A   Mostly Cloudy
3:53 PM 77.0 °F 63.0 °F 62% 30.04 in 10.0 mi West 5.8 mph - N/A   Mostly Cloudy
4:53 PM 78.1 °F 62.1 °F 58% 30.02 in 10.0 mi West 6.9 mph - N/A   Clear
5:53 PM 75.9 °F 62.1 °F 62% 30.02 in 10.0 mi WNW 10.4 mph - N/A   Mostly Cloudy
6:53 PM 73.0 °F 64.0 °F 73% 30.03 in 10.0 mi NW 6.9 mph - N/A   Clear
7:53 PM 71.1 °F 64.0 °F 78% 30.02 in 10.0 mi NNW 8.1 mph - N/A   Partly Cloudy
8:53 PM 69.1 °F 62.1 °F 78% 30.04 in 10.0 mi North 5.8 mph - N/A   Clear
10:53 PM 64.9 °F 62.1 °F 90% 30.07 in 10.0 mi North 5.8 mph - N/A   Clear
11:35 PM 64.0 °F 61.0 °F 90% 30.08 in 10.0 mi North 9.2 mph - N/A   Mostly Cloudy
11:53 PM 64.0 °F 61.0 °F 90% 30.06 in 10.0 mi North 5.8 mph - N/A   Overcast